sat.trackr.live / text

‹ back to catalog

STARLINK-36423

NORAD 67448 · 2026-008D

PAYLOAD ACTIVE UNKNOWN

§ Identity

Operator
Country
US
Launch date
2026-01-14
Launch site
AFETR
Launch vehicle
Mass (kg)
RCS (m²)

Purposes: comms

External: N2YO · Heavens-Above · Gunter

§ Orbital elements

Epoch: 2026-05-25T00:00:19.339776Z

Period
94.27 min
Inclination
43.0008°
Eccentricity
0.0001360
Mean motion
15.27591500 rev/d
Perigee alt
482.1 km
Apogee alt
483.9 km
Semi-major
6,861.2 km
B*
3.1795e-4
RAAN
134.2083°
Arg perigee
268.5063°
Mean anomaly
91.5633°
Rev number
2,124

§ Raw data

STARLINK-364231 67448U 26008D   26145.00022384  .00008500  00000+0  31795-3 0  99922 67448  43.0008 134.2083 0001360 268.5063  91.5633 15.27591500 21248

JSON: /api/v1/satellites/67448 · /tle

For live sub-satellite position, see the globe view (requires WebGL).

§ Visibility from observer

Set your observer location to see the next 7 days of passes ≥ 10°. The values pass through the URL so the page stays shareable.

No JS? Fill the form by hand. The geolocation button needs JavaScript.